• Join FlightAware (Why Join?)
  • Login
  • US Flag 
07:00AM EST


 

Airport Tracker/Info


-or-


 

Live Flight TrackerFlight Track Log ✈ EJA929 ✈ 23-Feb-2014 ✈ MYGF / FPO - KTEB

Flight Track Log - Related Links

Times and Time Zones

All times are in EST time to prevent confusion due to time zone crossing. See the EJA929 flight status page for this flight to view local times or setup timezone preferences in your user account.

Time Position Orientation Groundspeed Altitude Reporting Facility
EST Latitude Longitude Course Direction KTS MPH feet Rate Location/Type
05:09PM 26.6192 -78.6181 336° Northwest 502 578 41,000  Level Miami Center
05:10PM 26.7644 -78.6900 336° Northwest 431 496 8,400 -14,700 Descending Miami Center
05:11PM 26.8442 -78.6681 14° North 354 407 11,600 3,120 Climbing Miami Center
05:13PM 27.0286 -78.6078 16° North 335 386 17,800 2,760 Climbing Miami Center
05:14PM 27.1125 -78.5789 17° North 329 379 19,900 2,040 Climbing Miami Center
05:15PM 27.2111 -78.5475 16° North 334 384 21,900 1,500 Climbing Miami Center
05:16PM 27.3139 -78.5117 17° North 343 395 23,000 840 Climbing Miami Center
05:17PM 27.4228 -78.4781 15° North 379 436 23,600 1,020 Climbing Miami Center
05:18PM 27.5403 -78.4400 16° North 413 475 25,100 1,500 Climbing Miami Center
05:19PM 27.6658 -78.3994 16° North 438 504 26,700 1,380 Climbing Miami Center
05:20PM 27.7875 -78.3611 16° North 444 511 27,900 1,200 Climbing Miami Center
05:21PM 27.9092 -78.3181 17° North 460 529 29,100 1,200 Climbing Miami Center
05:22PM 28.0342 -78.3197 359° North 430 495 30,300 1,500 Climbing Miami Center
05:23PM 28.0978 -78.4311 303° West 363 418 32,200 2,100 Climbing Miami Center
05:24PM 28.1528 -78.5497 298° West 379 436 34,600 1,860 Climbing Miami Center
05:25PM 28.2017 -78.6611 296° West 389 448 36,000 660 Climbing Miami Center
05:26PM 28.2797 -78.7614 311° West 410 472 36,000  Level Miami Center
05:27PM 28.4047 -78.7778 353° North 401 461 36,000  Level Miami Center
05:28PM 28.5144 -78.6944 34° Northeast 389 448 36,000  Level Miami Center
05:29PM 28.6178 -78.5969 40° Northeast 436 502 36,000  Level Miami Center
05:30PM 28.7233 -78.5039 38° Northeast 450 518 36,000  Level Miami Center
05:31PM 28.8286 -78.4131 37° Northeast 461 531 36,000 480 Level Miami Center
05:32PM 28.9419 -78.3506 26° Northeast 454 522 37,000 480 Climbing Miami Center
05:33PM 29.0636 -78.2975 21° North 446 513 37,000 -60 Level Miami Center
05:34PM 29.1808 -78.2444 22° Northeast 446 513 36,900  Descending Miami Center
05:35PM 29.2919 -78.1886 24° Northeast 446 513 37,000  Climbing Miami Center
05:36PM 29.4114 -78.1378 20° North 441 507 37,000 -60 Level Miami Center
05:37PM 29.5203 -78.0936 19° North 435 501 36,900 -60 Descending Miami Center
05:38PM 29.6386 -78.1356 343° North 386 444 36,900  Level Miami Center
05:39PM 29.7514 -78.1417 357° North 396 456 37,000  Climbing Miami Center
05:40PM 29.8481 -78.0472 40° Northeast 400 460 37,000  Level Miami Center
05:41PM 29.8806 -77.8919 76° East 407 468 37,000  Level Miami Center
05:42PM 29.9247 -77.6975 75° East 482 555 37,000 -60 Level Jacksonville Center
05:43PM 30.0208 -77.5989 42° Northeast 453 521 36,900 -60 Descending Jacksonville Center
05:45PM 30.2617 -77.5158 14° North 438 504 36,900  Level Jacksonville Center
05:48PM 30.5981 -77.6225 14° North 410 472 36,900  Level Jacksonville Center
05:49PM 30.6939 -77.6725 336° Northwest 410 472 37,000  Climbing Jacksonville Center
05:50PM 30.8181 -77.6972 350° North 410 472 37,000  Level Jacksonville Center
05:51PM 30.9394 -77.6517 18° North 433 498 37,000  Level Jacksonville Center
05:52PM 31.0503 -77.5608 35° Northeast 481 554 37,000  Level Jacksonville Center
05:53PM 31.1594 -77.4769 33° Northeast 487 560 37,000  Level Jacksonville Center
05:54PM 31.3162 -77.2107 14° North  Level Estimated
05:54PM 31.2708 -77.3953 32° Northeast 476 548 37,000  Level Jacksonville Center
05:57PM 31.5342 -77.1797 35° Northeast 486 559 36,900 -60 Descending New York Center
05:58PM 31.6428 -77.0953 33° Northeast 480 552 36,900  Level New York Center
05:59PM 31.7539 -77.0058 34° Northeast 480 552 37,000 60 Climbing New York Center
06:00PM 31.8500 -76.8814 48° Northeast 480 552 37,100 1,140 Climbing New York Center
06:01PM 31.9439 -76.7561 49° Northeast 492 566 39,300 1,920 Climbing New York Center
06:02PM 32.0333 -76.6378 48° Northeast 502 578 41,000 840 Climbing New York Center
06:03PM 32.1247 -76.5142 49° Northeast 497 572 41,000  Level New York Center
06:04PM 32.2119 -76.3928 50° Northeast 492 566 41,000  Level New York Center
06:05PM 32.3033 -76.2689 49° Northeast 487 560 41,000  Level New York Center
06:06PM 32.3900 -76.1542 48° Northeast 482 555 41,000  Level New York Center
06:07PM 32.4767 -76.0344 49° Northeast 482 555 41,000 300 Level New York Center
06:08PM 32.5653 -75.9119 49° Northeast 489 563 41,600 480 Climbing New York Center
06:09PM 32.6586 -75.7847 49° Northeast 487 560 42,000 300 Climbing New York Center
06:10PM 32.7536 -75.6522 50° Northeast 509 586 42,200 180 Climbing New York Center
06:11PM 32.8467 -75.5219 50° Northeast 515 593 42,400 120 Climbing New York Center
06:12PM 32.9481 -75.3819 49° Northeast 535 616 42,500 300 Climbing New York Center
06:13PM 33.0453 -75.2464 49° Northeast 538 619 43,000 240 Climbing New York Center
06:14PM 33.1444 -75.1056 50° Northeast 546 628 43,000  Level New York Center
06:15PM 33.2392 -74.9667 51° Northeast 546 628 43,000  Level New York Center
06:16PM 33.3422 -74.8203 50° Northeast 557 641 43,000  Level New York Center
06:17PM 33.4408 -74.6811 50° Northeast 557 641 43,000  Level New York Center
06:18PM 33.5456 -74.5367 49° Northeast 566 651 43,000  Level New York Center
06:19PM 33.6503 -74.3944 48° Northeast 559 643 43,000  Level New York Center
06:20PM 33.7528 -74.2492 50° Northeast 566 651 43,000  Level New York Center
06:21PM 33.8547 -74.1111 48° Northeast 566 651 43,000  Level New York Center
06:22PM 33.9528 -73.9675 51° Northeast 560 644 43,000  Level New York Center
06:23PM 34.0672 -73.8117 48° Northeast 605 696 43,000  Level New York Center
06:24PM 34.1689 -73.6700 49° Northeast 581 669 43,000  Level New York Center
06:25PM 34.2664 -73.5306 50° Northeast 569 655 43,000  Level New York Center
06:26PM 34.3761 -73.3808 48° Northeast 571 657 43,000  Level New York Center
06:27PM 34.4794 -73.2331 50° Northeast 566 651 43,000  Level New York Center
06:28PM 34.5825 -73.0925 48° Northeast 566 651 43,000  Level New York Center
06:29PM 34.7092 -73.0181 26° Northeast 532 612 43,000  Level New York Center
06:30PM 34.8539 -72.9742 14° North 508 585 43,000  Level New York Center
06:31PM 34.9967 -72.9300 14° North 508 585 43,000  Level New York Center
06:32PM 35.1392 -72.8856 14° North 516 594 43,000  Level New York Center
06:33PM 35.2692 -72.8511 12° North 510 587 43,000  Level New York Center
06:34PM 35.4139 -72.8067 14° North 510 587 43,000  Level New York Center
06:35PM 35.5525 -72.7669 13° North 505 581 43,000  Level New York Center
06:36PM 35.6931 -72.7219 15° North 506 582 43,000  Level New York Center
06:37PM 35.8314 -72.6792 14° North 511 588 43,000  Level New York Center
06:38PM 35.9739 -72.6392 13° North 511 588 43,000  Level New York Center
06:39PM 36.1103 -72.5964 14° North 511 588 43,000  Level New York Center
06:40PM 36.2506 -72.5508 15° North 506 582 43,000  Level New York Center
06:41PM 36.3911 -72.5103 13° North 511 588 43,000  Level New York Center
06:42PM 36.5358 -72.4644 14° North 511 588 43,000  Level New York Center
06:43PM 36.6656 -72.4233 14° North 506 582 43,000  Level New York Center
06:44PM 36.8164 -72.3931 North 509 586 43,000  Level New York Center
06:45PM 36.9561 -72.3908 North 509 586 43,000  Level New York Center
06:46PM 37.0917 -72.3914 360° North 494 568 43,000  Level New York Center
06:47PM 37.2356 -72.3892 North 500 575 43,000  Level New York Center
06:48PM 37.3669 -72.4000 356° North 489 563 43,000  Level New York Center
06:49PM 37.4914 -72.4578 340° North 477 549 43,000  Level New York Center
06:50PM 37.6114 -72.5208 337° Northwest 467 537 43,000  Level New York Center
06:51PM 37.7064 -72.5731 336° Northwest 446 513 43,000  Level New York Center
06:52PM 37.8222 -72.6364 337° Northwest 446 513 43,000 -540 Level New York Center
06:53PM 37.9550 -72.6900 342° North 446 513 42,000 -1,680 Descending New York Center
06:54PM 38.0600 -72.7558 334° Northwest 458 527 39,700 -2,400 Descending New York Center
06:55PM 38.1822 -72.8122 340° North 458 527 37,300 -2,400 Descending New York Center
06:56PM 38.2917 -72.8736 336° Northwest 444 511 34,900 -2,400 Descending New York Center
06:57PM 38.4178 -72.9328 340° North 451 519 32,500 -2,460 Descending New York Center
06:58PM 38.5375 -72.9975 337° Northwest 457 526 30,000 -2,520 Descending New York Center
06:59PM 38.6531 -73.0597 337° Northwest 462 532 27,500 -2,400 Descending New York Center
07:00PM 38.7603 -73.1297 333° Northwest 447 514 25,200 -2,340 Descending New York Center
07:01PM 38.8564 -73.2156 325° Northwest 422 486 22,900 -2,280 Descending New York Center
07:02PM 38.9464 -73.3014 323° Northwest 417 480 20,700 -2,220 Descending New York Center
07:03PM 39.0361 -73.3875 323° Northwest 407 468 18,500 -2,160 Descending New York Center
07:04PM 39.1281 -73.4739 324° Northwest 407 468 16,400 -2,160 Descending New York Center
07:05PM 39.2200 -73.5578 325° Northwest 407 468 14,200 -2,160 Descending New York Center
07:06PM 39.3056 -73.6389 324° Northwest 401 461 12,100 -2,100 Descending New York Center
07:07PM 39.3869 -73.7147 324° Northwest 388 447 10,100 -1,140 Descending New York Center
07:08PM 39.4664 -73.7881 325° Northwest 357 411 9,900 -900 Descending New York Center
07:09PM 39.5214 -73.8389 325° Northwest 281 323 8,400 -1,440 Descending New York Center
07:10PM 39.5764 -73.8897 325° Northwest 258 297 7,100 -720 Descending New York Center
07:11PM 39.6392 -73.9519 323° Northwest 253 291 7,000 -60 Descending New York Center
07:12PM 39.6942 -74.0028 325° Northwest 247 284 7,000  Level New York Center
07:13PM 39.7508 -74.0594 322° Northwest 247 284 7,000 -900 Level New York Center
07:14PM 39.8017 -74.1078 324° Northwest 247 284 5,200 -1,500 Descending New York Center
07:15PM 39.8586 -74.1619 324° Northwest 247 284 4,100 -600 Descending New York Center
07:16PM 39.9172 -74.2189 323° Northwest 240 276 4,000 -60 Descending New York Center
07:17PM 39.9719 -74.2731 323° Northwest 245 282 4,000  Level New York Center
07:18PM 40.0225 -74.3217 324° Northwest 245 282 4,000  Level New York Center
07:19PM 40.0772 -74.3761 323° Northwest 245 282 4,000  Level New York Center
07:20PM 40.1358 -74.4333 323° Northwest 245 282 4,000  Level New York Center
07:20PM 40.1833 -74.4667 332° Northwest 238 274 4,100  Climbing New York TRACON
07:21PM 40.2333 -74.5167 323° Northwest 239 275 4,100  Level New York TRACON
07:22PM 40.3000 -74.5167 360° North 246 283 4,100  Level New York TRACON
07:23PM 40.3667 -74.5333 349° North 243 280 4,100  Level New York TRACON
07:24PM 40.4333 -74.5333 360° North 245 282 4,100 -60 Level New York TRACON
07:25PM 40.5000 -74.5500 349° North 250 288 4,000  Descending New York TRACON
07:26PM 40.5667 -74.5500 360° North 248 285 4,100  Climbing New York TRACON
07:27PM 40.6333 -74.5333 11° North 262 302 4,100  Level New York TRACON
07:28PM 40.7000 -74.5000 21° North 257 296 4,100 -60 Level New York TRACON
07:29PM 40.7667 -74.4833 11° North 252 290 4,000  Descending New York TRACON
07:30PM 40.8333 -74.4500 21° North 253 291 4,100 -480 Climbing New York TRACON
07:31PM 40.9000 -74.4333 11° North 247 284 3,100 -480 Descending New York TRACON
07:32PM 40.9667 -74.4167 11° North 198 228 3,100  Level New York TRACON
07:33PM 40.9833 -74.3500 72° East 210 242 3,100  Level New York TRACON
07:34PM 41.0000 -74.2667 75° East 214 246 3,100  Level New York TRACON
07:35PM 41.0167 -74.2000 72° East 212 244 3,100 -480 Level New York TRACON
07:36PM 41.0167 -74.1333 90° East 201 231 2,200 -540 Descending New York TRACON
07:37PM 41.0167 -74.0667 90° East 206 237 2,100 -120 Descending New York TRACON
07:38PM 40.9667 -74.0500 166° South 191 220 2,000 -360 Descending New York TRACON
07:39PM 40.9167 -74.0500 180° South 174 200 1,400 -720 Descending New York TRACON
07:40PM 40.8833 -74.0500 180° South 122 140 600 -840 Descending New York TRACON
07:44PM 40.8500 -74.0500 66° East  Level FlightAware Approximate